Change the Weather History Date:

Friday, January 3, 2014

  Actual Average Record
Temperature  
Mean Temperature 40 °F -  
Max Temperature 48 °F - - ()
Min Temperature 31 °F - - ()
Degree Days  
Heating Degree Days 25    
Moisture  
Dew Point 35 °F    
Average Humidity 85    
Maximum Humidity 100    
Minimum Humidity 50    
Precipitation  
Precipitation 0.01 in - - ()
Sea Level Pressure  
Sea Level Pressure 30.04 in    
Wind  
Wind Speed 6 mph ()    
Max Wind Speed 11 mph    
Max Gust Speed -    
Visibility 4.9 miles    
Events Fog , Rain    
T = Trace of Precipitation, MM = Missing Value Source: Averaged Metar Reports

Daily Weather History Graph

Daily Weather History Graph

Search for Another Location

Airport or City:

Trip Planner

Search our weather history database for the weather conditions in past years. The results will help you decide how hot, cold, wet, or windy it might be!

Date:

Astronomy

Jan. 03, 2014 Rise Set
Actual Time 7:45 AM CET 4:03 PM CET
Civil Twilight 7:07 AM CET 4:40 PM CET
Nautical Twilight 6:27 AM CET 5:21 PM CET
Astronomical Twilight 5:48 AM CET 6:00 PM CET
Moon 8:43 AM CET (1/3) 7:08 PM CET (1/3)
Length of Visible Light 9h 33m
Length of Day
8h 18m
Waxing Crescent, 6% of the Moon is Illuminated
Jan 3
Waxing Crescent
Jan 8
First Quarter
Jan 16
Full
Jan 24
Last Quarter
Jan 30
New

Hourly Weather History & Observations

Time (CET) Temp. Dew Point Humidity Pressure Visibility Wind Dir Wind Speed Gust Speed Precip Events Conditions
12:00 AM 39 °F 36 °F 86% 30.01 in 3 mi SSE 8.9 mph - - Rain Light Rain Showers
1:00 AM 38 °F 36 °F 91% 30.01 in 2 mi South 4.5 mph - - Rain Light Rain
2:00 AM 39 °F 37 °F 91% 30.02 in 2 mi SSE 8.9 mph - - Rain Light Rain
3:00 AM 40 °F 38 °F 88% 30.03 in 3 mi SSE 6.7 mph - - Rain Light Rain Showers
4:00 AM 39 °F 37 °F 91% 30.01 in 2 mi SSE 6.7 mph - - Rain Rain
5:00 AM 39 °F 37 °F 90% 30.03 in 2 mi South 6.7 mph - -   Mist
6:00 AM 38 °F 37 °F 95% 30.04 in 2 mi South 8.9 mph - -   Mist
7:00 AM 37 °F 35 °F 92% 30.06 in 4 mi South 11.2 mph - -   Mist
8:00 AM 35 °F 34 °F 94% 30.07 in 1 mi South 6.7 mph - -   Mist
9:00 AM 35 °F 34 °F 96% 30.08 in 0 mi South 6.7 mph - - Fog Partial Fog
10:00 AM 38 °F 38 °F 100% 30.08 in 3 mi South 6.7 mph - - Fog Light Fog
11:00 AM 42 °F 37 °F 77% 30.07 in 6 mi South 6.7 mph - -   Scattered Clouds
12:00 PM 46 °F 38 °F 65% 30.04 in 8 mi SE 8.9 mph - -   Scattered Clouds
1:00 PM 47 °F 36 °F 56% 30.02 in 12 mi SE 8.9 mph - -   Partly Cloudy
2:00 PM 49 °F 36 °F 50% 30.01 in 12 mi SSE 6.7 mph - -   Scattered Clouds
3:00 PM 46 °F 38 °F 66% 30.01 in 16 mi SW 4.5 mph - -   Clear
4:00 PM 41 °F 36 °F 77% 30.02 in 12 mi South 8.9 mph - -   Scattered Clouds
5:00 PM 39 °F 35 °F 81% 30.04 in 5 mi South 6.7 mph - -   Mist
6:00 PM 35 °F 33 °F 91% 30.06 in 3 mi South 2.2 mph - -   Mist
7:00 PM 35 °F 33 °F 87% 30.06 in 6 mi SSE 8.9 mph - -   Mist
8:00 PM 36 °F 33 °F 87% 30.06 in 6 mi SSE 6.7 mph - -   Clear
9:00 PM 32 °F 30 °F 91% 30.08 in 3 mi WSW 4.5 mph - -   Mist
10:00 PM 32 °F 31 °F 93% 30.07 in 2 mi SSE 4.5 mph - -   Mist
11:00 PM 31 °F 30 °F 93% 30.08 in 2 mi South 4.5 mph - -   Mist